Regional Weather Roundup
Issued by NWS

Home | Current Version | Previous Version | Graphics & Text | Print | Product List | Glossary On
Versions: 1 2 3 4 5 6 7 8 9 10 11 12 13 14 15 16 17 18 19 20 21 22 23 24 25 26 27
000
ASUS45 KBOU 201607
RWRCO

WEATHER ROUNDUP FOR COLORADO
NATIONAL WEATHER SERVICE DENVER/BOULDER CO
1000 AM MDT WED SEP 20 2017

NOTE: "FAIR" INDICATES FEW OR NO CLOUDS BELOW 12000 FEET WITH NO
SIGNIFICANT WEATHER AND/OR OBSTRUCTIONS TO VISIBILITY.

COZ001>005-013-030-031-201700-
...NORTHWEST COLORADO...

CITY           SKY/WX    TMP DP  RH WIND       PRES   REMARKS
CRAIG          PTSUNNY   50  37  61 E12       30.04S
HAYDEN         FAIR      43  37  79 SE10      30.07R
MEEKER         CLOUDY    49  39  68 CALM      30.03F
RABBIT EARS PA CLOUDY    37  34  87 W7        30.18R
STEAMBOAT SPGS CLOUDY    40  37  90 CALM      30.07S
WALDEN         PTSUNNY   43  36  75 SE8       30.08S
$$

COZ006>008-011-201700-
...WEST CENTRAL VALLEYS...

CITY           SKY/WX    TMP DP  RH WIND       PRES   REMARKS
GRAND JUNCTION FAIR      63  37  38 S3        29.97R
MONTROSE       FAIR      68  34  28 N5        30.02F
EAGLE          FAIR      52  33  48 CALM      30.08R
RIFLE          FAIR      56  36  47 SE3       30.01S
DELTA          FAIR      69  34  27 E6        30.00S
NUCLA          FAIR      68  30  24 S13G20    30.07R
$$

COZ017>023-064>068-201700-
...SOUTHWEST COLORADO...

CITY           SKY/WX    TMP DP  RH WIND       PRES   REMARKS
DURANGO        FAIR      59  29  31 E5        30.14R
CORTEZ         FAIR      65  32  29 CALM      30.08S
PAGOSA SPRINGS FAIR      58  22  24 CALM      30.20R
TELLURIDE      FAIR      58  28  32 CALM      30.22S
WOLF CREEK PAS FAIR      37  21  52 SW10G17   30.42R
$$

COZ009-010-012-014-032>034-037-058>063-201700-
...CENTRAL COLORADO...

CITY           SKY/WX    TMP DP  RH WIND       PRES   REMARKS
ASPEN          FAIR      60  30  32 VRB3      30.06S
BUENA VISTA    FAIR      63  26  24 SE15      30.09S
COPPER MTN     FAIR      45  25  45 CALM      30.29R
BERTHOUD PASS  FAIR      36  28  75 W25G36    30.28R
COTTONWOOD PAS FAIR      55  21  26 SW9G25    30.19S
GUNNISON       FAIR      59  31  34 E3        30.13F
KREMMLING      FAIR      55  34  44 SE3       30.08F
LEADVILLE      FAIR      52  21  29 S7        30.16S
MONARCH PASS   FAIR      41  28  60 SW32G39   30.41R
SALIDA         FAIR      61  29  29 SE8G16    30.17R
SUNLIGHT       FAIR      43  30  61 SW15G29   30.25R
WILKERSON PASS FAIR      46  25  42 SW13G18   30.27R
$$

COZ069>075-201700-
...SAN LUIS VALLEY/SANGRE DE CRISTO MOUNTAINS...

CITY           SKY/WX    TMP DP  RH WIND       PRES   REMARKS
ALAMOSA        FAIR      63  29  27 S20       30.13F
DEL NORTE      FAIR      60  25  26 CALM      30.16S
LA VETA PASS   FAIR      54  27  35 MISG      30.37S
SAGUACHE       FAIR      55  28  35 SE5       30.17S
$$

COZ035-036-038>040-201700-
...NORTHERN COLORADO FRONT RANGE...

CITY           SKY/WX    TMP DP  RH WIND       PRES   REMARKS
DENVER INTL AP FAIR      61  31  32 SE26G32   29.98F
DMNS CITY PARK   N/A     56  33  41 NW5G12    29.98S
AURORA         MOSUNNY   64  31  29 S17       29.97F
FRONT RANGE AP MOSUNNY   63  32  31 SE28G37   29.99F
ERIE MUNI ARPT FAIR      56  31  37 S3        30.04S
BOULDER MUN AP FAIR      54  32  43 N3        29.99S
CENTENNIAL     FAIR      57  34  41 NW6       29.98F
BROOMFIELD     MOSUNNY   55  32  41 CALM      30.00S
FORT COLLINS   FAIR      55  34  45 S10       30.01R
LONGMONT       FAIR      59  35  39 N3        30.01S
$$

COZ041-046-047-076>085-087-088-201700-
...PIKES PEAK/PALMER DIVIDE AND SOUTHERN FOOTHILLS...

CITY           SKY/WX    TMP DP  RH WIND       PRES   REMARKS
COLO. SPRINGS  FAIR      56  32  40 S21       30.11S
A. F. ACADEMY  FAIR      56  28  35 SE21G29   30.06F
SCHRIEVER AFB  FAIR      53  28  37 S16G23    30.11S
CHEYENNE MTN   NOT AVBL
ELLICOTT         N/A    N/A N/A N/A SW13G18   30.10S
FALCON         FAIR      52  29  41 S24G32    30.12S
FORT CARSON    FAIR      57  31  37 SW14G23   30.08S
LIMON          FAIR      57  27  31 S15G21    30.06F
MONUMENT HILL  FAIR      52  30  43 S28G36    30.06F
CANON CITY     SUNNY     61  36  39 NE12      30.09S
WALSENBURG     FAIR      61  32  33 SE12G17   30.11S
TRINIDAD       FAIR      60  28  29 E8        30.10R
$$

COZ042>045-048>051-090-091-201700-
...NORTHEAST COLORADO...

CITY           SKY/WX    TMP DP  RH WIND       PRES   REMARKS
GREELEY ARPT   FAIR      60  33  36 S13       30.01S
AKRON          FAIR      59  25  27 SW6       30.01S
BURLINGTON     FAIR      67  23  19 NE14      30.02S
WRAY           FAIR      64  27  24 N6        30.00S
YUMA           FAIR      61  27  27 N6        30.00S
STERLING       FAIR      61  34  36 SW8       29.99S
HOLYOKE        NOT AVBL
FORT MORGAN    FAIR      59  30  32 S8        30.02S
$$

COZ086-089-092>099-201700-
...SOUTHEAST COLORADO...

CITY           SKY/WX    TMP DP  RH WIND       PRES   REMARKS
PUEBLO         FAIR      60  31  33 SE5       30.08S
LA JUNTA       FAIR      61  32  33 MISG      30.06S
LAMAR          FAIR      64  30  27 N5        30.02S
SPRINGFIELD    NOT AVBL
$$




USA.gov is the U.S. government's official web portal to all federal, state and local government web resources and services.